CAPE
224 400 603 661 854 1188 1902 2144 2488 3030 3059 2867 2491 2054 2163 2158 1812 1780 1782 1728 1801 1933 1842 1546 1523 1622 1458 1634 1265 1265 1024 710 635 871 1261 1409 1174 1219 905 1387 1515 1241 1830
227 374 632 817 1122 1445 1880 2118 2499 2899 2636 2432 2493 2308 1861 1746 1829 1770 1681 1829 1914 1706 1745 1714 1498 1509 1434 1581 1354 1458 1233 782 324 983 1070 1207 1255 1259 696 748 969 1616 1736
147 295 501 1278 1580 1661 1873 2650 2680 2455 2245 2453 2226 1739 1784 1849 1727 1754 1679 1593 1569 1603 1742 1501 1698 1623 1247 1272 1433 1290 1107 964 491 940 856 730 815 1121 467 625 1086 1505 1642
162 236 593 1354 1975 1946 2330 2684 2577 1910 1964 2030 1845 1787 1724 1748 1747 1660 1575 1675 1866 1756 1711 1801 1753 1594 1263 1214 1192 1089 1166 1163 650 883 784 836 756 842 1100 1238 1249 1251 1101
69 306 1194 1607 2303 2135 2170 2304 2498 2248 1907 1944 1892 1876 1819 1718 1620 1539 1649 1801 2014 1884 1668 1730 1737 1696 1403 1154 993 940 1141 1393 998 431 752 1102 837 945 1207 1380 1424 1579 1240
162 420 1479 1985 1807 2104 2095 2199 1878 1915 1926 1926 1936 1842 1689 1579 1471 1550 1669 1898 1936 1676 1528 1499 1633 1617 1380 1284 1082 1269 1122 1342 1386 403 290 1195 1214 1043 846 1321 1423 1523 1358
272 782 1149 2263 2310 2078 2105 2160 1788 1755 1796 1899 1920 1790 1620 1460 1426 1474 1537 1671 1848 1821 1558 1490 1383 1428 1319 1267 1208 1149 1316 1473 1253 547 806 1125 1275 1337 1429 1537 1658 1664 1657
373 677 952 1719 2027 2069 1950 1880 1815 1793 1780 1852 1918 1776 1576 1513 1483 1439 1450 1583 1750 1653 1442 1475 1462 1314 1223 1475 1358 1497 968 817 867 524 879 1220 1340 1328 1522 1458 1597 1614 1612
545 800 907 955 1567 1652 1707 1673 1782 1914 1869 1837 1800 1866 1712 1503 1458 1418 1433 1498 1447 1468 1432 1317 1399 1396 1274 1564 1512 1602 1515 774 836 695 527 1138 1450 1477 1683 996 1299 1614 1325
638 816 1174 809 1039 1218 1397 1562 1561 1786 1906 1919 1840 1762 1651 1633 1458 1520 1522 1438 1697 1364 1398 1409 1393 1462 1452 1482 1576 1689 1033 926 873 963 725 1333 1531 1707 1238 1300 562 1514 860
746 798 891 923 1425 1667 1481 1423 1472 1621 1793 1844 1830 1786 1614 1722 1736 1759 1822 2042 1765 1512 1433 1502 1443 1570 1758 1782 1433 1543 1350 631 588 1024 690 1030 1606 1617 1436 1569 1084 1416 592
642 798 871 908 1166 1377 1146 1536 1568 1218 1023 1326 1440 1859 1692 1697 1584 1669 1970 1964 1595 1526 1494 1533 1679 1845 1550 1575 1575 1708 1705 759 165 863 919 835 1381 1361 1105 1609 1657 1051 1083
469 603 835 974 1238 1171 1044 1326 1487 1204 1170 1341 1805 1827 1619 1719 1673 1686 1872 1739 1812 1494 1561 1416 1724 1563 1864 1426 812 1239 1634 658 310 360 524 921 1373 1148 1109 1641 1373 1574 1414
514 569 728 897 1185 1193 1079 1207 1257 1251 1195 1056 1168 1798 1580 1213 1405 1759 1817 1866 1866 1617 1583 1893 1810 1806 1651 1682 812 796 856 691 545 421 287 798 1343 1255 1150 1221 1642 1190 1328
514 528 704 921 1190 1289 1415 1087 1088 1349 1064 853 1163 1215 1021 1170 1689 1847 1701 1694 1918 1457 1427 2279 1864 1712 1558 1392 1020 675 846 858 800 832 583 686 1363 1491 1171 1303 1580 1515 1542
450 516 759 940 1107 1265 1262 1435 1496 1457 1157 1168 821 821 1046 1154 1857 1855 1778 1542 1802 1919 2093 1736 2094 1599 1677 1574 1609 1016 668 666 841 1023 898 726 1251 1434 1456 1243 1166 1677 1695
426 536 702 954 1036 1253 1292 1320 1496 1302 1063 746 666 1041 951 1104 1699 2034 2079 1714 2014 2011 2314 2142 1540 1393 302 80 105 74 94 477 469 830 1159 637 558 1020 1113 1619 1363 1200 1430
456 643 761 738 931 1160 1185 1267 1170 1085 860 583 584 650 877 1080 1615 1877 1993 1698 1709 2173 2641 1890 1234 1173 439 97 18 107 256 140 47 640 883 938 885 680 825 1050 1601 1332 1285
722 700 755 843 872 1036 1167 1147 1102 920 581 462 506 592 975 1358 1631 1729 1827 1772 2007 1840 2183 1689 1368 967 153 57 71 99 224 145 239 275 559 881 1043 1073 749 730 1077 1421 1144
865 961 859 847 972 1086 980 1007 853 696 392 281 423 860 1173 1638 1777 1950 1811 2137 1977 1830 1875 1651 1369 642 85 155 0 166 189 293 285 321 329 209 680 1137 1097 956 908 859 844
863 1006 1147 1137 1537 1080 919 731 504 307 423 831 1269 1591 1700 1766 2015 2201 1913 2103 2078 2007 1976 1764 1111 750 0 158 0 202 198 192 161 171 238 654 1082 1217 1290 1159 1036 1328 1211
973 1124 1399 1574 1655 1355 1075 1093 612 736 607 1226 1657 1740 1756 1919 2239 2230 2137 2044 2088 1921 2099 1741 1036 470 192 124 4 126 58 145 101 57 281 734 1190 842 828 902 982 1230 1088
1123 1307 1670 1991 1960 1620 1529 1037 907 1032 1227 1370 1601 1766 1853 2034 2280 2347 2330 2073 2207 2097 1758 1800 1013 584 65 140 15 50 56 45 195 45 175 573 860 499 480 267 269 768 680
1280 1238 1730 1816 2079 1700 2004 1478 1639 954 837 1016 1500 1738 1803 2052 2176 2267 2343 2145 2320 1953 1938 1720 1092 569 143 111 19 0 93 296 86 71 91 281 442 375 384 95 121 381 281
832 945 1164 1806 1993 2014 1987 1946 1627 1618 1099 1121 1357 2156 2703 2229 2081 2007 2322 2286 2303 2112 2103 1912 1167 568 204 91 60 1 6 17 111 83 67 65 132 89 169 129 36 127 301
866 771 839 1678 1896 1990 1956 2009 2163 2144 1959 1378 1479 1473 1470 1525 1693 2069 2118 2379 2348 2180 2183 1921 1422 854 351 151 166 124 13 0 22 89 69 81 54 18 0 2 24 13 198
CIN
0 -1 0 -3 -2 0 0 0 0 0 0 0 0 0 0 0 0 0 0 0 -1 -3 -1 -1 0 0 0 0 0 -6 -5 -12 -2 0 0 0 0 0 0 0 -3 0 0
-1 -3 0 -2 -1 0 0 0 0 0 0 0 0 0 -1 -2 0 0 0 0 -2 -3 -1 -1 0 0 0 0 -2 -2 0 -2 -18 0 0 0 0 0 -3 -2 -3 -1 0
-9 0 -2 -1 0 0 0 0 0 0 0 0 0 -3 -4 -1 0 0 0 0 -1 0 0 -1 0 0 -3 -1 -4 -8 -3 0 -7 0 -4 0 0 0 -7 -5 0 0 0
-1 0 0 -3 0 0 0 0 0 0 0 -2 0 -4 -7 -1 0 0 0 -2 -1 -2 -1 -1 0 -1 -5 -9 -8 -6 -6 -1 -13 -1 0 0 0 0 0 0 0 0 -1
-5 -1 0 0 0 0 0 0 0 0 -2 0 -1 -1 0 0 0 0 0 -3 -3 -1 -1 -1 0 0 -4 -11 -12 -14 -9 -4 -4 -12 0 0 0 0 0 0 0 0 0
-18 -1 0 0 0 0 0 0 0 0 0 0 0 0 0 0 0 0 0 -3 -1 0 0 0 0 -1 -9 -15 -18 -14 -14 -6 -1 -10 -15 -1 0 0 0 0 0 0 0
-3 0 0 0 0 0 0 0 -1 0 -2 -1 0 0 0 0 0 0 0 -1 -1 0 -1 -6 -14 -11 -11 -13 -13 -13 -19 -8 -2 -11 -2 0 0 0 0 0 0 0 0
-3 0 0 0 0 0 0 0 0 -2 -3 -2 0 0 0 0 0 0 0 0 0 -1 -10 -20 -27 -30 -19 -11 -15 -13 -25 -18 -8 -13 -1 0 -4 -2 0 0 0 0 0
0 0 0 0 0 0 0 0 -1 -1 0 -2 -2 -1 -2 -3 -6 -4 -5 -3 -5 -9 -20 -33 -34 -38 -29 -14 -14 -9 -10 -32 -8 -7 -6 0 -4 -1 0 -2 -1 0 0
0 0 0 -3 0 0 -1 -1 -3 0 0 -1 -2 -9 -8 -9 -8 -8 -13 -19 -11 -24 -21 -29 -36 -34 -32 -30 -22 -15 -27 -34 -13 -4 -5 -1 -2 0 0 0 -17 0 -4
0 -1 -2 -4 0 0 -1 -2 -4 -2 -2 -2 -3 -10 -11 -2 -4 -2 -14 -14 -16 -21 -20 -20 -26 -33 -28 -28 -37 -33 -39 -28 -33 -5 -12 -27 -4 0 0 0 -2 0 -22
-5 -2 -8 -8 -4 -1 -5 -1 -1 -10 -14 -8 -5 -5 -4 -10 -18 -17 -13 -26 -22 -23 -19 -19 -20 -30 -34 -5 -8 -19 -9 -30 -42 -25 -10 -35 -6 0 0 0 -1 -4 -2
-44 -24 -16 -11 -7 -8 -11 -6 -3 -15 -19 -20 -9 -9 -16 -16 -21 -13 -9 -11 -10 -32 -7 -15 -10 -9 -20 -28 -66 -5 -8 -21 -16 -17 -49 -35 -7 0 0 0 -2 -1 -1
-51 -56 -34 -23 -9 -5 -12 -12 -13 -17 -25 -33 -33 -19 -27 -28 -31 -22 -16 -18 -19 -11 -46 -35 -23 -27 -11 -24 -14 -5 -7 -6 -7 -11 -39 -55 -11 -3 -2 0 0 -3 -1
-72 -73 -51 -31 -11 -8 -4 -16 -24 -19 -35 -42 -41 -40 -42 -36 -22 -23 -23 -17 -20 -66 -55 -12 -43 -25 -16 -10 -11 -8 -32 -9 -15 -6 -6 -53 -18 -7 -4 -1 0 0 0
-111 -95 -57 -42 -29 -14 -16 -13 -13 -17 -35 -41 -50 -48 -56 -44 -30 -20 -18 -24 -28 -28 -18 -66 -17 -41 -22 -29 -8 -6 -7 -5 -20 -12 -1 -6 -22 -11 -4 -6 -8 0 0
-154 -116 -86 -53 -41 -25 -24 -23 -10 -23 -39 -54 -61 -67 -70 -65 -35 -27 -12 -12 -11 -17 -21 -20 -44 -35 -25 -93 -199 -143 -128 -39 -28 -14 -3 -2 -3 -24 -12 -4 -4 -6 -3
-141 -134 -96 -77 -62 -46 -38 -34 -36 -38 -52 -59 -66 -66 -76 -74 -53 -35 -17 -8 -14 -18 -12 -10 -58 -9 -18 -56 -1 -104 -40 -110 -278 -15 -4 -5 -4 -1 -16 -16 -4 -7 -8
-119 -130 -113 -82 -79 -70 -52 -45 -49 -62 -81 -70 -62 -62 -67 -73 -52 -41 -16 -9 -18 -9 -10 -10 -9 -14 -30 -92 -94 -83 -42 -105 -77 -22 -7 -8 -10 -5 -1 -44 -21 -12 -7
-85 -97 -103 -97 -86 -73 -69 -56 -63 -68 -83 -75 -63 -80 -62 -47 -47 -39 -18 -16 -15 -5 -6 -7 -10 -21 -55 -25 -8 -37 -53 -35 -41 -19 -9 -23 -10 -7 -2 -5 -2 -5 -24
-82 -87 -86 -76 -53 -81 -90 -100 -118 -132 -95 -54 -41 -55 -56 -57 -54 -39 -19 -17 -13 -6 -3 -11 -11 -14 0 -37 0 -9 -14 -34 -48 -36 -21 -4 -3 -1 -2 -2 0 -1 -1
-120 -123 -80 -71 -56 -86 -102 -94 -113 -95 -71 -35 -28 -44 -54 -52 -48 -37 -27 -18 -13 -8 -10 -12 -25 -20 -51 -53 -15 -7 -16 -8 -28 -21 -69 -7 -3 0 -1 -3 -6 -2 -1
-123 -143 -99 -58 -47 -68 -62 -82 -77 -55 -41 -32 -22 -18 -32 -39 -39 -41 -36 -24 -15 -12 -5 -11 -24 -37 -43 -82 -134 -7 -3 0 -2 -24 -42 -14 -12 -4 -9 -16 -17 -11 -12
-141 -179 -133 -93 -53 -73 -39 -48 -37 -80 -74 -58 -17 -15 -17 -28 -28 -37 -38 -30 -17 -9 -8 -8 -24 -59 -96 -68 -100 0 -69 -23 0 -1 -18 -23 -22 -10 -15 -22 -19 -17 -25
-171 -189 -190 -132 -84 -65 -60 -49 -63 -40 -60 -43 -28 -12 -15 -18 -32 -33 -33 -34 -22 -14 -9 -8 -39 -93 -79 -97 -84 -5 -44 -50 -58 -7 -1 -11 -26 -26 -23 -26 -55 -15 -25
-161 -173 -202 -128 -115 -80 -75 -67 -47 -46 -38 -47 -48 -38 -24 -13 -11 -26 -32 -30 -28 -17 -13 -13 -34 -77 -87 -133 -95 -80 -62 0 -56 -25 -32 -38 -59 -84 0 -23 -49 -29 -14
Wind_Speed
7 6 7 10 5 10 9 9 10 10 11 10 9 7 6 5 5 5 5 5 8 8 7 5 7 8 8 7 5 4 5 4 3 4 4 4 1 5 10 10 6 6 7
3 5 6 8 9 11 12 11 10 10 10 9 8 7 5 5 6 7 5 8 7 6 5 3 3 7 9 9 7 7 6 5 5 8 7 4 1 2 8 7 10 9 7
1 2 4 6 10 12 12 10 10 10 10 10 8 7 4 5 7 6 7 6 7 6 5 2 2 5 6 8 8 6 5 6 3 4 5 6 2 3 4 6 6 7 9
5 3 2 6 10 12 10 10 9 11 11 9 7 5 7 8 7 6 7 7 5 3 5 3 1 2 2 4 6 5 5 4 5 2 5 4 2 1 3 3 6 6 8
nan 3 6 9 9 10 9 9 10 10 10 7 6 8 9 9 9 8 7 8 6 4 4 2 1 1 1 1 0 4 8 8 6 3 1 4 4 1 2 5 8 9 7
6 5 9 9 10 9 8 9 9 9 8 7 8 10 9 11 10 9 9 9 7 4 4 3 3 1 1 1 2 5 5 13 5 5 2 4 2 3 3 3 8 10 10
7 6 8 8 7 7 8 8 8 6 7 8 9 10 12 11 9 9 9 9 6 5 5 6 5 5 4 4 5 6 7 13 8 8 4 2 2 3 4 7 9 11 11
9 7 7 7 7 7 7 6 6 6 9 10 11 12 12 10 8 10 11 12 11 10 9 9 10 11 10 8 8 10 9 10 9 13 8 6 6 2 5 7 8 11 10
11 8 6 8 7 6 6 6 7 9 12 13 15 14 14 15 16 17 17 17 16 17 16 15 14 12 10 11 11 14 13 15 9 9 10 6 5 4 6 8 6 9 10
9 7 7 7 7 7 9 10 10 13 15 16 17 16 19 22 23 22 21 20 20 17 14 14 14 13 10 11 11 13 13 16 16 7 10 5 4 6 7 10 8 7 10
8 8 8 8 8 10 11 11 13 14 16 19 20 21 21 22 21 21 19 20 18 15 14 13 14 13 11 10 10 13 15 13 15 9 1 6 1 10 10 9 10 9 8
11 9 8 8 9 10 12 14 15 18 20 20 21 22 22 20 20 21 19 18 13 15 14 12 12 12 16 10 12 14 13 12 13 11 9 7 4 7 8 8 10 8 7
11 8 10 8 8 10 13 16 17 19 20 20 20 21 20 19 17 18 16 15 14 13 13 11 11 11 15 11 11 13 13 14 12 12 8 13 12 9 12 10 7 5 9
9 10 10 9 9 11 11 14 14 15 16 15 18 18 17 17 16 15 15 14 14 11 12 8 8 9 10 12 11 11 12 15 12 11 10 13 14 10 13 12 10 8 6
8 9 10 9 10 10 13 13 15 15 14 16 16 15 15 16 15 14 15 15 13 11 10 8 7 7 6 7 9 9 13 12 13 12 11 14 14 11 9 11 13 11 11
8 8 8 10 10 10 13 13 13 13 14 13 14 13 13 14 13 14 14 13 11 10 8 5 5 3 4 4 5 5 7 7 9 12 11 12 11 12 11 10 11 14 11
8 6 7 8 8 10 11 12 12 11 11 12 12 12 13 13 13 14 13 13 9 6 6 7 3 3 3 nan 3 nan nan 2 5 8 9 8 10 9 9 9 9 12 12
9 7 6 6 7 10 9 11 12 11 10 10 9 11 13 13 12 12 12 12 10 9 7 7 5 5 5 nan nan 3 2 3 nan 5 5 6 7 5 9 8 10 9 11
10 8 6 6 7 8 9 10 11 11 11 9 9 9 12 10 10 11 11 11 11 8 10 9 8 6 7 nan nan nan 8 6 8 7 6 3 4 6 7 8 6 8 8
11 8 6 6 8 6 7 8 8 9 9 10 10 8 10 8 9 10 10 11 11 10 11 11 10 8 nan 7 nan 10 8 9 9 9 10 8 5 5 7 6 8 10 4
11 10 9 8 8 4 6 7 5 5 6 8 8 11 10 8 11 12 12 13 13 11 9 10 9 10 nan 10 nan 13 11 12 13 12 11 11 12 10 10 9 8 8 11
11 9 7 9 6 4 3 3 4 3 6 7 6 6 7 8 11 14 16 16 14 11 11 10 10 12 11 14 nan 12 nan 13 12 nan 10 12 14 13 13 12 11 12 12
11 10 6 6 4 3 3 1 2 5 7 5 5 5 5 7 10 14 18 17 15 12 11 10 12 13 nan 14 nan nan nan nan 19 nan 11 10 12 14 15 16 16 15 14
9 6 4 4 5 5 6 3 4 3 2 3 2 3 4 5 8 12 15 18 15 12 11 10 10 13 15 16 nan nan nan 14 nan nan nan 6 7 11 15 nan 18 19 20
7 7 5 2 2 2 3 3 4 3 2 3 2 1 3 5 8 11 16 18 14 11 10 11 14 15 15 nan nan nan nan nan 13 nan nan nan 10 nan 10 11 nan 17 20
6 3 2 3 4 4 3 5 5 5 3 2 3 4 3 5 7 11 14 16 14 11 10 12 14 15 12 11 12 13 nan nan nan nan nan nan nan nan nan nan nan nan 16
Wind_Direction
122 60 41 348 339 337 331 326 325 332 339 352 0 351 342 354 12 45 79 116 101 85 63 36 63 64 58 50 64 66 53 58 58 356 338 333 258 202 189 181 137 225 227
117 79 0 353 339 325 330 328 334 335 347 352 355 356 359 3 35 51 77 89 93 116 121 130 71 62 54 36 19 14 8 17 38 49 9 353 164 190 185 178 155 219 242
30 27 344 350 324 328 330 325 337 342 355 357 359 17 20 27 41 55 65 90 125 156 146 187 130 68 53 34 31 25 353 345 354 42 65 81 106 140 191 203 203 232 250
329 344 306 322 324 321 321 332 350 353 1 357 13 32 56 61 65 68 79 96 108 150 174 209 214 75 30 26 37 357 350 354 324 325 85 71 84 183 203 231 236 279 270
nan 310 322 321 315 317 330 351 0 356 0 11 29 48 57 69 69 68 89 105 124 182 194 210 268 322 337 23 128 10 346 315 318 16 222 127 110 284 235 263 279 273 272
314 337 320 318 317 333 351 359 349 350 14 30 43 52 61 64 62 76 99 124 151 149 108 91 77 65 61 297 357 329 314 332 342 262 214 186 193 268 325 271 275 277 280
319 351 338 332 349 359 8 357 349 3 37 55 60 64 67 67 66 78 93 115 120 114 101 95 93 85 73 63 63 352 309 314 315 217 202 159 235 291 290 273 273 274 287
331 346 345 1 9 14 15 10 25 58 66 63 66 68 68 78 90 92 101 114 119 103 95 83 79 78 74 67 62 7 353 355 332 195 175 145 173 35 300 276 272 275 278
340 349 20 35 29 22 38 43 71 79 77 76 73 69 78 86 91 98 106 107 99 91 84 77 87 76 61 45 50 21 17 17 26 187 159 148 131 24 329 321 287 270 270
2 0 33 51 46 64 71 71 87 86 84 82 84 88 92 95 97 98 96 94 89 84 79 79 79 78 62 45 39 11 17 25 35 109 160 174 86 360 320 311 309 285 278
26 26 45 51 64 77 88 91 90 90 91 94 95 99 97 99 101 100 104 97 84 74 73 81 84 86 80 54 39 21 30 44 44 61 134 257 315 322 306 303 297 300 299
21 41 55 62 68 73 91 97 99 101 102 103 104 105 103 103 105 107 103 106 88 80 70 67 67 69 78 63 41 39 48 41 48 43 53 32 10 359 341 329 304 306 305
24 66 65 65 73 74 97 105 111 108 109 107 104 106 107 107 108 111 105 97 91 80 72 59 56 64 69 80 53 43 37 39 45 42 25 38 37 36 18 3 324 324 314
38 58 70 72 80 82 109 114 109 111 113 113 119 105 110 109 108 110 105 101 100 99 90 82 67 45 51 52 55 36 34 35 37 43 31 42 43 45 34 21 3 5 344
51 66 73 82 85 86 96 111 110 110 115 119 116 113 111 109 113 113 101 96 93 91 91 83 47 40 40 40 50 47 35 33 26 38 37 36 44 47 40 32 28 15 6
65 57 74 85 85 91 99 99 111 112 120 122 122 113 104 108 112 107 98 88 83 80 94 88 94 8 41 48 78 40 51 38 26 30 24 20 43 45 50 35 18 22 32
85 59 72 89 93 95 96 108 116 118 123 122 116 104 98 99 100 101 92 80 72 60 55 23 16 350 318 nan 290 nan nan 30 45 26 24 18 11 20 34 40 23 25 28
84 80 80 104 89 97 109 117 124 128 125 119 117 113 96 89 89 88 78 64 45 43 23 11 13 355 329 nan nan 309 295 302 nan 344 358 13 17 23 2 13 14 13 20
94 87 92 97 101 100 112 127 125 123 124 120 118 112 94 87 73 73 59 50 34 31 21 22 17 22 1 nan nan nan 308 279 283 301 291 322 336 11 355 323 358 1 6
98 97 88 86 80 89 125 128 137 137 132 128 118 108 91 79 58 45 35 28 14 24 24 22 35 25 nan 16 nan 326 299 292 291 269 270 267 261 316 324 321 332 315 334
96 76 64 67 68 86 112 122 127 114 131 131 119 99 77 52 39 26 10 359 10 22 20 12 28 22 nan 6 nan 338 320 306 285 267 258 268 271 277 285 298 309 303 310
96 84 60 60 49 62 92 101 141 165 122 124 127 105 61 24 12 5 359 352 2 10 6 10 15 8 7 358 nan 5 nan 346 312 nan 266 267 268 272 277 278 278 284 294
87 68 65 60 25 15 49 233 231 198 178 167 122 94 61 29 10 3 359 355 359 10 4 5 13 21 nan 354 nan nan nan nan 359 nan 266 270 278 288 288 290 289 290 285
83 94 72 47 26 18 357 307 353 43 63 101 89 68 41 23 10 356 359 1 3 360 3 358 16 14 2 357 nan nan nan 353 nan nan nan 311 304 311 301 nan 304 306 303
92 78 84 97 56 52 5 323 313 30 119 168 197 330 10 350 353 349 357 1 1 356 359 2 360 5 358 nan nan nan nan nan 28 nan nan nan 340 nan 318 317 nan 316 318
87 81 70 356 350 343 334 337 325 308 303 257 280 281 297 312 316 349 358 358 359 350 3 3 355 359 358 355 12 12 nan nan nan nan nan nan nan nan nan nan nan nan 323